Year,Month,Day,Hour,Minute,Value (Times are PST for temperature in C)
2018,04,26,00,00,15.50
2018,04,26,00,01,15.50
2018,04,26,00,02,15.50
2018,04,26,00,03,15.50
2018,04,26,00,04,15.50
2018,04,26,00,05,15.50
2018,04,26,00,06,15.50
2018,04,26,00,07,15.40
2018,04,26,00,08,15.40
2018,04,26,00,09,15.40
2018,04,26,00,10,15.40
2018,04,26,00,11,15.40
2018,04,26,00,12,15.40
2018,04,26,00,13,15.40
2018,04,26,00,14,15.30
2018,04,26,00,15,15.30
2018,04,26,00,16,15.30
2018,04,26,00,17,15.30
2018,04,26,00,18,15.30
2018,04,26,00,19,15.30
2018,04,26,00,20,15.30
2018,04,26,00,21,15.30
2018,04,26,00,22,15.20
2018,04,26,00,23,15.20
2018,04,26,00,24,15.20
2018,04,26,00,25,15.20
2018,04,26,00,26,15.10
2018,04,26,00,27,15.10
2018,04,26,00,28,15.10
2018,04,26,00,29,15.00
2018,04,26,00,30,14.90
2018,04,26,00,31,14.90
2018,04,26,00,32,14.80
2018,04,26,00,33,14.80
2018,04,26,00,34,14.70
2018,04,26,00,35,14.60
2018,04,26,00,36,14.50
2018,04,26,00,37,14.50
2018,04,26,00,38,14.40
2018,04,26,00,39,14.40
2018,04,26,00,40,14.30
2018,04,26,00,41,14.30
2018,04,26,00,42,14.20
2018,04,26,00,43,14.20
2018,04,26,00,44,14.10
2018,04,26,00,45,14.10
2018,04,26,00,46,14.10
2018,04,26,00,47,14.00
2018,04,26,00,48,14.00
2018,04,26,00,49,13.90
2018,04,26,00,50,13.90
2018,04,26,00,51,13.90
2018,04,26,00,52,13.90
2018,04,26,00,53,13.80
2018,04,26,00,54,13.80
2018,04,26,00,55,13.80
2018,04,26,00,56,13.80
2018,04,26,00,57,13.80
2018,04,26,00,58,13.80
2018,04,26,00,59,13.80
2018,04,26,01,00,13.80
2018,04,26,01,01,13.80
2018,04,26,01,02,13.80
2018,04,26,01,03,13.80
2018,04,26,01,04,13.80
2018,04,26,01,05,13.80
2018,04,26,01,06,13.70
2018,04,26,01,07,13.70
2018,04,26,01,08,13.70
2018,04,26,01,09,13.70
2018,04,26,01,10,13.70
2018,04,26,01,11,13.70
2018,04,26,01,12,13.70
2018,04,26,01,13,13.70
2018,04,26,01,14,13.70
2018,04,26,01,15,13.70
2018,04,26,01,16,13.70
2018,04,26,01,17,13.60
2018,04,26,01,18,13.60
2018,04,26,01,19,13.60
2018,04,26,01,20,13.60
2018,04,26,01,21,13.60
2018,04,26,01,22,13.60
2018,04,26,01,23,13.50
2018,04,26,01,24,13.50
2018,04,26,01,25,13.50
2018,04,26,01,26,13.50
2018,04,26,01,27,13.50
2018,04,26,01,28,13.40
2018,04,26,01,29,13.40
2018,04,26,01,30,13.40
2018,04,26,01,31,13.40
2018,04,26,01,32,13.40
2018,04,26,01,33,13.40
2018,04,26,01,34,13.40
2018,04,26,01,35,13.30
2018,04,26,01,36,13.30
2018,04,26,01,37,13.30
2018,04,26,01,38,13.30
2018,04,26,01,39,13.30
2018,04,26,01,40,13.20
2018,04,26,01,41,13.20
2018,04,26,01,42,13.20
2018,04,26,01,43,13.20
2018,04,26,01,44,13.20
2018,04,26,01,45,13.10
2018,04,26,01,46,13.10
2018,04,26,01,47,13.10
2018,04,26,01,48,13.10
2018,04,26,01,49,13.00
2018,04,26,01,50,13.00
2018,04,26,01,51,13.00
2018,04,26,01,52,13.00
2018,04,26,01,53,12.90
2018,04,26,01,54,12.90
2018,04,26,01,55,12.90
2018,04,26,01,56,12.90
2018,04,26,01,57,12.90
2018,04,26,01,58,12.90
2018,04,26,01,59,12.80
2018,04,26,02,00,12.80
2018,04,26,02,01,12.80
2018,04,26,02,02,12.80
2018,04,26,02,03,12.80
2018,04,26,02,04,12.80
2018,04,26,02,05,12.80
2018,04,26,02,06,12.80
2018,04,26,02,07,12.80
2018,04,26,02,08,12.80
2018,04,26,02,09,12.80
2018,04,26,02,10,12.90
2018,04,26,02,11,12.90
2018,04,26,02,12,12.90
2018,04,26,02,13,12.90
2018,04,26,02,14,12.90
2018,04,26,02,15,12.90
2018,04,26,02,16,12.90
2018,04,26,02,17,12.90
2018,04,26,02,18,12.90
2018,04,26,02,19,12.90
2018,04,26,02,20,12.90
2018,04,26,02,21,12.80
2018,04,26,02,22,12.80
2018,04,26,02,23,12.80
2018,04,26,02,24,12.80
2018,04,26,02,25,12.80
2018,04,26,02,26,12.80
2018,04,26,02,27,12.80
2018,04,26,02,28,12.80
2018,04,26,02,29,12.70
2018,04,26,02,30,12.70
2018,04,26,02,31,12.70
2018,04,26,02,32,12.70
2018,04,26,02,33,12.70
2018,04,26,02,34,12.70
2018,04,26,02,35,12.70
2018,04,26,02,36,12.60
2018,04,26,02,37,12.60
2018,04,26,02,38,12.60
2018,04,26,02,39,12.60
2018,04,26,02,40,12.60
2018,04,26,02,41,12.60
2018,04,26,02,42,12.60
2018,04,26,02,43,12.60
2018,04,26,02,44,12.60
2018,04,26,02,45,12.60
2018,04,26,02,46,12.60
2018,04,26,02,47,12.60
2018,04,26,02,48,12.60
2018,04,26,02,49,12.50
2018,04,26,02,50,12.50
2018,04,26,02,51,12.50
2018,04,26,02,52,12.50
2018,04,26,02,53,12.40
2018,04,26,02,54,12.40
2018,04,26,02,55,12.40
2018,04,26,02,56,12.40
2018,04,26,02,57,12.40
2018,04,26,02,58,12.30
2018,04,26,02,59,12.30
2018,04,26,03,00,12.30
2018,04,26,03,01,12.30
2018,04,26,03,02,12.20
2018,04,26,03,03,12.20
2018,04,26,03,04,12.20
2018,04,26,03,05,12.10
2018,04,26,03,06,12.10
2018,04,26,03,07,12.10
2018,04,26,03,08,12.10
2018,04,26,03,09,12.00
2018,04,26,03,10,12.00
2018,04,26,03,11,12.00
2018,04,26,03,12,12.00
2018,04,26,03,13,11.90
2018,04,26,03,14,11.90
2018,04,26,03,15,11.90
2018,04,26,03,16,11.90
2018,04,26,03,17,11.90
2018,04,26,03,18,11.90
2018,04,26,03,19,11.80
2018,04,26,03,20,11.80
2018,04,26,03,21,11.80
2018,04,26,03,22,11.80
2018,04,26,03,23,11.80
2018,04,26,03,24,11.90
2018,04,26,03,25,11.90
2018,04,26,03,26,12.00
2018,04,26,03,27,12.00
2018,04,26,03,28,12.10
2018,04,26,03,29,12.10
2018,04,26,03,30,12.20
2018,04,26,03,31,12.30
2018,04,26,03,32,12.40
2018,04,26,03,33,12.50
2018,04,26,03,34,12.60
2018,04,26,03,35,12.60
2018,04,26,03,36,12.70
2018,04,26,03,37,12.80
2018,04,26,03,38,12.80
2018,04,26,03,39,12.90
2018,04,26,03,40,12.90
2018,04,26,03,41,13.00
2018,04,26,03,42,13.00
2018,04,26,03,43,13.10
2018,04,26,03,44,13.10
2018,04,26,03,45,13.20
2018,04,26,03,46,13.20
2018,04,26,03,47,13.20
2018,04,26,03,48,13.30
2018,04,26,03,49,13.30
2018,04,26,03,50,13.30
2018,04,26,03,51,13.30
2018,04,26,03,52,13.30
2018,04,26,03,53,13.30
2018,04,26,03,54,13.30
2018,04,26,03,55,13.30
2018,04,26,03,56,13.30
2018,04,26,03,57,13.30
2018,04,26,03,58,13.30
2018,04,26,03,59,13.30
2018,04,26,04,00,13.30
2018,04,26,04,01,13.30
2018,04,26,04,02,13.30
2018,04,26,04,03,13.30
2018,04,26,04,04,13.30
2018,04,26,04,05,13.30
2018,04,26,04,06,13.40
2018,04,26,04,07,13.40
2018,04,26,04,08,13.40
2018,04,26,04,09,13.40
2018,04,26,04,10,13.40
2018,04,26,04,11,13.40
2018,04,26,04,12,13.40
2018,04,26,04,13,13.50
2018,04,26,04,14,13.50
2018,04,26,04,15,13.50
2018,04,26,04,16,13.50
2018,04,26,04,17,13.50
2018,04,26,04,18,13.50
2018,04,26,04,19,13.50
2018,04,26,04,20,13.60
2018,04,26,04,21,13.60
2018,04,26,04,22,13.60
2018,04,26,04,23,13.60
2018,04,26,04,24,13.50
2018,04,26,04,25,13.50
2018,04,26,04,26,13.50
2018,04,26,04,27,13.50
2018,04,26,04,28,13.50
2018,04,26,04,29,13.50
2018,04,26,04,30,13.50
2018,04,26,04,31,13.50
2018,04,26,04,32,13.50
2018,04,26,04,33,13.50
2018,04,26,04,34,13.50
2018,04,26,04,35,13.50
2018,04,26,04,36,13.50
2018,04,26,04,37,13.50
2018,04,26,04,38,13.40
2018,04,26,04,39,13.40
2018,04,26,04,40,13.40
2018,04,26,04,41,13.40
2018,04,26,04,42,13.50
2018,04,26,04,43,13.40
2018,04,26,04,44,13.50
2018,04,26,04,45,13.40
2018,04,26,04,46,13.40
2018,04,26,04,47,13.40
2018,04,26,04,48,13.50
2018,04,26,04,49,13.40
2018,04,26,04,50,13.40
2018,04,26,04,51,13.40
2018,04,26,04,52,13.40
2018,04,26,04,53,13.40
2018,04,26,04,54,13.40
2018,04,26,04,55,13.40
2018,04,26,04,56,13.40
2018,04,26,04,57,13.40
2018,04,26,04,58,13.40
2018,04,26,04,59,13.40
2018,04,26,05,00,13.40
2018,04,26,05,01,13.40
2018,04,26,05,02,13.50
2018,04,26,05,03,13.50
2018,04,26,05,04,13.50
2018,04,26,05,05,13.50
2018,04,26,05,06,13.50
2018,04,26,05,07,13.50
2018,04,26,05,08,13.50
2018,04,26,05,09,13.60
2018,04,26,05,10,13.60
2018,04,26,05,11,13.60
2018,04,26,05,12,13.60
2018,04,26,05,13,13.60
2018,04,26,05,14,13.60
2018,04,26,05,15,13.50
2018,04,26,05,16,13.50
2018,04,26,05,17,13.50
2018,04,26,05,18,13.50
2018,04,26,05,19,13.50
2018,04,26,05,20,13.50
2018,04,26,05,21,13.50
2018,04,26,05,22,13.50
2018,04,26,05,23,13.50
2018,04,26,05,24,13.50
2018,04,26,05,25,13.50
2018,04,26,05,26,13.50
2018,04,26,05,27,13.50
2018,04,26,05,28,13.50
2018,04,26,05,29,13.50
2018,04,26,05,30,13.50
2018,04,26,05,31,13.50
2018,04,26,05,32,13.50
2018,04,26,05,33,13.50
2018,04,26,05,34,13.50
2018,04,26,05,35,13.60
2018,04,26,05,36,13.60
2018,04,26,05,37,13.60
2018,04,26,05,38,13.60
2018,04,26,05,39,13.60
2018,04,26,05,40,13.60
2018,04,26,05,41,13.60
2018,04,26,05,42,13.60
2018,04,26,05,43,13.60
2018,04,26,05,44,13.60
2018,04,26,05,45,13.70
2018,04,26,05,46,13.70
2018,04,26,05,47,13.70
2018,04,26,05,48,13.70
2018,04,26,05,49,13.70
2018,04,26,05,50,13.70
2018,04,26,05,51,13.70
2018,04,26,05,52,13.70
2018,04,26,05,53,13.70
2018,04,26,05,54,13.70
2018,04,26,05,55,13.70
2018,04,26,05,56,13.70
2018,04,26,05,57,13.70
2018,04,26,05,58,13.70
2018,04,26,05,59,13.70
2018,04,26,06,00,13.70
2018,04,26,06,01,13.70
2018,04,26,06,02,13.70
2018,04,26,06,03,13.70
2018,04,26,06,04,13.70
2018,04,26,06,05,13.70
2018,04,26,06,06,13.70
2018,04,26,06,07,13.70
2018,04,26,06,08,13.70
2018,04,26,06,09,13.70
2018,04,26,06,10,13.70
2018,04,26,06,11,13.70
2018,04,26,06,12,13.70
2018,04,26,06,13,13.70
2018,04,26,06,14,13.70
2018,04,26,06,15,13.70
2018,04,26,06,16,13.70
2018,04,26,06,17,13.70
2018,04,26,06,18,13.70
2018,04,26,06,19,13.70
2018,04,26,06,20,13.70
2018,04,26,06,21,13.80
2018,04,26,06,22,13.80
2018,04,26,06,23,13.80
2018,04,26,06,24,13.80
2018,04,26,06,25,13.80
2018,04,26,06,26,13.80
2018,04,26,06,27,13.80
2018,04,26,06,28,13.80
2018,04,26,06,29,13.80
2018,04,26,06,30,13.80
2018,04,26,06,31,13.80
2018,04,26,06,32,13.80
2018,04,26,06,33,13.80
2018,04,26,06,34,13.80
2018,04,26,06,35,13.80
2018,04,26,06,36,13.80
2018,04,26,06,37,13.80
2018,04,26,06,38,13.80
2018,04,26,06,39,13.80
2018,04,26,06,40,13.80
2018,04,26,06,41,13.80
2018,04,26,06,42,13.80
2018,04,26,06,43,13.70
2018,04,26,06,44,13.70
2018,04,26,06,45,13.70
2018,04,26,06,46,13.70
2018,04,26,06,47,13.60
2018,04,26,06,48,13.60
2018,04,26,06,49,13.60
2018,04,26,06,50,13.60
2018,04,26,06,51,13.60
2018,04,26,06,52,13.60
2018,04,26,06,53,13.60
2018,04,26,06,54,13.60
2018,04,26,06,55,13.60
2018,04,26,06,56,13.60
2018,04,26,06,57,13.60
2018,04,26,06,58,13.60
2018,04,26,06,59,13.60
2018,04,26,07,00,13.60
2018,04,26,07,01,13.70
2018,04,26,07,02,13.70
2018,04,26,07,03,13.70
2018,04,26,07,04,13.70
2018,04,26,07,05,13.80
2018,04,26,07,06,13.80
2018,04,26,07,07,13.80
2018,04,26,07,08,13.90
2018,04,26,07,09,13.90
2018,04,26,07,10,14.00
2018,04,26,07,11,14.00
2018,04,26,07,12,14.10
2018,04,26,07,13,14.10
2018,04,26,07,14,14.10
2018,04,26,07,15,14.20
2018,04,26,07,16,14.20
2018,04,26,07,17,14.20
2018,04,26,07,18,14.30
2018,04,26,07,19,14.30
2018,04,26,07,20,14.30
2018,04,26,07,21,14.30
2018,04,26,07,22,14.40
2018,04,26,07,23,14.40
2018,04,26,07,24,14.40
2018,04,26,07,25,14.50
2018,04,26,07,26,14.50
2018,04,26,07,27,14.50
2018,04,26,07,28,14.50
2018,04,26,07,29,14.50
2018,04,26,07,30,14.50
2018,04,26,07,31,14.60
2018,04,26,07,32,14.50
2018,04,26,07,33,14.50
2018,04,26,07,34,14.50
2018,04,26,07,35,14.50
2018,04,26,07,36,14.50
2018,04,26,07,37,14.40
2018,04,26,07,38,14.40
2018,04,26,07,39,14.30
2018,04,26,07,40,14.30
2018,04,26,07,41,14.30
2018,04,26,07,42,14.30
2018,04,26,07,43,14.20
2018,04,26,07,44,14.20
2018,04,26,07,45,14.20
2018,04,26,07,46,14.20
2018,04,26,07,47,14.20
2018,04,26,07,48,14.20
2018,04,26,07,49,14.20
2018,04,26,07,50,14.20
2018,04,26,07,51,14.30
2018,04,26,07,52,14.30
2018,04,26,07,53,14.30
2018,04,26,07,54,14.30
2018,04,26,07,55,14.30
2018,04,26,07,56,14.30
2018,04,26,07,57,14.40
2018,04,26,07,58,14.40
2018,04,26,07,59,14.40
2018,04,26,08,00,14.40
2018,04,26,08,01,14.50
2018,04,26,08,02,14.50
2018,04,26,08,03,14.60
2018,04,26,08,04,14.60
2018,04,26,08,05,14.60
2018,04,26,08,06,14.70
2018,04,26,08,07,14.70
2018,04,26,08,08,14.70
2018,04,26,08,09,14.80
2018,04,26,08,10,14.80
2018,04,26,08,11,14.80
2018,04,26,08,12,14.80
2018,04,26,08,13,14.90
2018,04,26,08,14,14.90
2018,04,26,08,15,14.90
2018,04,26,08,16,14.90
2018,04,26,08,17,15.00
2018,04,26,08,18,15.00
2018,04,26,08,19,15.10
2018,04,26,08,20,15.10
2018,04,26,08,21,15.10
2018,04,26,08,22,15.20
2018,04,26,08,23,15.20
2018,04,26,08,24,15.20
2018,04,26,08,25,15.20
2018,04,26,08,26,15.20
2018,04,26,08,27,15.20
2018,04,26,08,28,15.20
2018,04,26,08,29,15.20
2018,04,26,08,30,15.20
2018,04,26,08,31,15.20
2018,04,26,08,32,15.20
2018,04,26,08,33,15.20
2018,04,26,08,34,15.20
2018,04,26,08,35,15.10
2018,04,26,08,36,15.10
2018,04,26,08,37,15.10
2018,04,26,08,38,15.10
2018,04,26,08,39,15.10
2018,04,26,08,40,15.10
2018,04,26,08,41,15.10
2018,04,26,08,42,15.10
2018,04,26,08,43,15.10
2018,04,26,08,44,15.10
2018,04,26,08,45,15.10
2018,04,26,08,46,15.10
2018,04,26,08,47,15.20
2018,04,26,08,48,15.20
2018,04,26,08,49,15.20
2018,04,26,08,50,15.20
2018,04,26,08,51,15.20
2018,04,26,08,52,15.20
2018,04,26,08,53,15.30
2018,04,26,08,54,15.30
2018,04,26,08,55,15.30
2018,04,26,08,56,15.30
2018,04,26,08,57,15.30
2018,04,26,08,58,15.30
2018,04,26,08,59,15.30
2018,04,26,09,00,15.30
2018,04,26,09,01,15.30
2018,04,26,09,02,15.30
2018,04,26,09,03,15.30
2018,04,26,09,04,15.30
2018,04,26,09,05,15.30
2018,04,26,09,06,15.40
2018,04,26,09,07,15.40
2018,04,26,09,08,15.40
2018,04,26,09,09,15.50
2018,04,26,09,10,15.50
2018,04,26,09,11,15.60
2018,04,26,09,12,15.60
2018,04,26,09,13,15.60
2018,04,26,09,14,15.70
2018,04,26,09,15,15.70
2018,04,26,09,16,15.70
2018,04,26,09,17,15.80
2018,04,26,09,18,15.80
2018,04,26,09,19,15.80
2018,04,26,09,20,15.90
2018,04,26,09,21,15.90
2018,04,26,09,22,16.00
2018,04,26,09,23,16.00
2018,04,26,09,24,16.10
2018,04,26,09,25,16.10
2018,04,26,09,26,16.10
2018,04,26,09,27,16.20
2018,04,26,09,28,16.20
2018,04,26,09,29,16.20
2018,04,26,09,30,16.20
2018,04,26,09,31,16.20
2018,04,26,09,32,16.20
2018,04,26,09,33,16.20
2018,04,26,09,34,16.20
2018,04,26,09,35,16.20
2018,04,26,09,36,16.20
2018,04,26,09,37,16.20
2018,04,26,09,38,16.20
2018,04,26,09,39,16.20
2018,04,26,09,40,16.30
2018,04,26,09,41,16.30
2018,04,26,09,42,16.30
2018,04,26,09,43,16.30
2018,04,26,09,44,16.40
2018,04,26,09,45,16.40
2018,04,26,09,46,16.40
2018,04,26,09,47,16.40
2018,04,26,09,48,16.40
2018,04,26,09,49,16.40
2018,04,26,09,50,16.50
2018,04,26,09,51,16.50
2018,04,26,09,52,16.50
2018,04,26,09,53,16.50
2018,04,26,09,54,16.50
2018,04,26,09,55,16.60
2018,04,26,09,56,16.60
2018,04,26,09,57,16.60
2018,04,26,09,58,16.60
2018,04,26,09,59,16.60
2018,04,26,10,00,16.60
2018,04,26,10,01,16.60
2018,04,26,10,02,16.60
2018,04,26,10,03,16.50
2018,04,26,10,04,16.50
2018,04,26,10,05,16.50
2018,04,26,10,06,16.50
2018,04,26,10,07,16.50
2018,04,26,10,08,16.50
2018,04,26,10,09,16.50
2018,04,26,10,10,16.50
2018,04,26,10,11,16.50
2018,04,26,10,12,16.60
2018,04,26,10,13,16.60
2018,04,26,10,14,16.60
2018,04,26,10,15,16.60
2018,04,26,10,16,16.60
2018,04,26,10,17,16.70
2018,04,26,10,18,16.70
2018,04,26,10,19,16.80
2018,04,26,10,20,16.80
2018,04,26,10,21,16.80
2018,04,26,10,22,16.80
2018,04,26,10,23,16.90
2018,04,26,10,24,16.90
2018,04,26,10,25,16.90
2018,04,26,10,26,16.90
2018,04,26,10,27,17.00
2018,04,26,10,28,17.00
2018,04,26,10,29,17.00
2018,04,26,10,30,17.00
2018,04,26,10,31,16.90
2018,04,26,10,32,16.90
2018,04,26,10,33,16.90
2018,04,26,10,34,16.90
2018,04,26,10,35,16.90
2018,04,26,10,36,17.00
2018,04,26,10,37,17.00
2018,04,26,10,38,17.00
2018,04,26,10,39,17.00
2018,04,26,10,40,17.10
2018,04,26,10,41,17.10
2018,04,26,10,42,17.10
2018,04,26,10,43,17.10
2018,04,26,10,44,17.10
2018,04,26,10,45,17.10
2018,04,26,10,46,17.10
2018,04,26,10,47,17.00
2018,04,26,10,48,17.10
2018,04,26,10,49,17.10
2018,04,26,10,50,17.10
2018,04,26,10,51,17.10
2018,04,26,10,52,17.20
2018,04,26,10,53,17.20
2018,04,26,10,54,17.20
2018,04,26,10,55,17.20
2018,04,26,10,56,17.20
2018,04,26,10,57,17.20
2018,04,26,10,58,17.20
2018,04,26,10,59,17.20
2018,04,26,11,00,17.30
2018,04,26,11,01,17.30
2018,04,26,11,02,17.30
2018,04,26,11,03,17.40
2018,04,26,11,04,17.40
2018,04,26,11,05,17.50
2018,04,26,11,06,17.60
2018,04,26,11,07,17.70
2018,04,26,11,08,17.80
2018,04,26,11,09,17.80
2018,04,26,11,10,17.90
2018,04,26,11,11,17.90
2018,04,26,11,12,18.00
2018,04,26,11,13,18.00
2018,04,26,11,14,18.10
2018,04,26,11,15,18.10
2018,04,26,11,16,18.10
2018,04,26,11,17,18.20
2018,04,26,11,18,18.20
2018,04,26,11,19,18.30
2018,04,26,11,20,18.30
2018,04,26,11,21,18.40
2018,04,26,11,22,18.50
2018,04,26,11,23,18.50
2018,04,26,11,24,18.50
2018,04,26,11,25,18.60
2018,04,26,11,26,18.50
2018,04,26,11,27,18.50
2018,04,26,11,28,18.50
2018,04,26,11,29,18.50
2018,04,26,11,30,18.60
2018,04,26,11,31,18.60
2018,04,26,11,32,18.60
2018,04,26,11,33,18.60
2018,04,26,11,34,18.60
2018,04,26,11,35,18.60
2018,04,26,11,36,18.70
2018,04,26,11,37,18.70
2018,04,26,11,38,18.80
2018,04,26,11,39,18.80
2018,04,26,11,40,18.80
2018,04,26,11,41,18.90
2018,04,26,11,42,18.90
2018,04,26,11,43,18.90
2018,04,26,11,44,18.90
2018,04,26,11,45,18.90
2018,04,26,11,46,18.90
2018,04,26,11,47,18.90
2018,04,26,11,48,18.90
2018,04,26,11,49,18.90
2018,04,26,11,50,18.90
2018,04,26,11,51,19.00
2018,04,26,11,52,19.10
2018,04,26,11,53,19.10
2018,04,26,11,54,19.20
2018,04,26,11,55,19.30
2018,04,26,11,56,19.40
2018,04,26,11,57,19.40
2018,04,26,11,58,19.50
2018,04,26,11,59,19.60
2018,04,26,12,00,19.60
2018,04,26,12,01,19.70
2018,04,26,12,02,19.70
2018,04,26,12,03,19.80
2018,04,26,12,04,19.80
2018,04,26,12,05,19.80
2018,04,26,12,06,19.90
2018,04,26,12,07,19.90
2018,04,26,12,08,19.80
2018,04,26,12,09,19.80
2018,04,26,12,10,19.70
2018,04,26,12,11,19.70
2018,04,26,12,12,19.60
2018,04,26,12,13,19.60
2018,04,26,12,14,19.50
2018,04,26,12,15,19.50
2018,04,26,12,16,19.40
2018,04,26,12,17,19.40
2018,04,26,12,18,19.40
2018,04,26,12,19,19.40
2018,04,26,12,20,19.40
2018,04,26,12,21,19.40
2018,04,26,12,22,19.30
2018,04,26,12,23,19.30
2018,04,26,12,24,19.30
2018,04,26,12,25,19.30
2018,04,26,12,26,19.30
2018,04,26,12,27,19.40
2018,04,26,12,28,19.40
2018,04,26,12,29,19.50
2018,04,26,12,30,19.60
2018,04,26,12,31,19.60
2018,04,26,12,32,19.60
2018,04,26,12,33,19.70
2018,04,26,12,34,19.70
2018,04,26,12,35,19.70
2018,04,26,12,36,19.80
2018,04,26,12,37,19.80
2018,04,26,12,38,19.80
2018,04,26,12,39,19.80
2018,04,26,12,40,19.80
2018,04,26,12,41,19.80
2018,04,26,12,42,19.80
2018,04,26,12,43,19.80
2018,04,26,12,44,19.90
2018,04,26,12,45,19.90
2018,04,26,12,46,20.00
2018,04,26,12,47,20.10
2018,04,26,12,48,20.20
2018,04,26,12,49,20.20
2018,04,26,12,50,20.30
2018,04,26,12,51,20.30
2018,04,26,12,52,20.40
2018,04,26,12,53,20.40
2018,04,26,12,54,20.50
2018,04,26,12,55,20.50
2018,04,26,12,56,20.50
2018,04,26,12,57,20.50
2018,04,26,12,58,20.50
2018,04,26,12,59,20.50
2018,04,26,13,00,20.60
2018,04,26,13,01,20.60
2018,04,26,13,02,20.50
2018,04,26,13,03,20.40
2018,04,26,13,04,20.40
2018,04,26,13,05,20.40
2018,04,26,13,06,20.40
2018,04,26,13,07,20.40
2018,04,26,13,08,20.40
2018,04,26,13,09,20.50
2018,04,26,13,10,20.50
2018,04,26,13,11,20.50
2018,04,26,13,12,20.60
2018,04,26,13,13,20.60
2018,04,26,13,14,20.60
2018,04,26,13,15,20.60
2018,04,26,13,16,20.70
2018,04,26,13,17,20.70
2018,04,26,13,18,20.80
2018,04,26,13,19,20.80
2018,04,26,13,20,20.90
2018,04,26,13,21,20.90
2018,04,26,13,22,21.00
2018,04,26,13,23,21.10
2018,04,26,13,24,21.10
2018,04,26,13,25,21.20
2018,04,26,13,26,21.20
2018,04,26,13,27,21.30
2018,04,26,13,28,21.40
2018,04,26,13,29,21.40
2018,04,26,13,30,21.50
2018,04,26,13,31,21.50
2018,04,26,13,32,21.60
2018,04,26,13,33,21.60
2018,04,26,13,34,21.60
2018,04,26,13,35,21.60
2018,04,26,13,36,21.70
2018,04,26,13,37,21.80
2018,04,26,13,38,21.80
2018,04,26,13,39,21.80
2018,04,26,13,40,21.80
2018,04,26,13,41,21.80
2018,04,26,13,42,21.80
2018,04,26,13,43,21.80
2018,04,26,13,44,21.90
2018,04,26,13,45,21.90
2018,04,26,13,46,21.90
2018,04,26,13,47,21.90
2018,04,26,13,48,21.90
2018,04,26,13,49,21.90
2018,04,26,13,50,21.90
2018,04,26,13,51,21.90
2018,04,26,13,52,21.90
2018,04,26,13,53,21.90
2018,04,26,13,54,21.90
2018,04,26,13,55,21.90
2018,04,26,13,56,21.90
2018,04,26,13,57,22.00
2018,04,26,13,58,22.00
2018,04,26,13,59,22.00
2018,04,26,14,00,22.00
2018,04,26,14,01,21.90
2018,04,26,14,02,21.90
2018,04,26,14,03,21.90
2018,04,26,14,04,21.90
2018,04,26,14,05,21.90
2018,04,26,14,06,21.90
2018,04,26,14,07,21.90
2018,04,26,14,08,21.90
2018,04,26,14,09,21.90
2018,04,26,14,10,21.80
2018,04,26,14,11,21.80
2018,04,26,14,12,21.70
2018,04,26,14,13,21.60
2018,04,26,14,14,21.50
2018,04,26,14,15,21.50
2018,04,26,14,16,21.50
2018,04,26,14,17,21.40
2018,04,26,14,18,21.40
2018,04,26,14,19,21.40
2018,04,26,14,20,21.40
2018,04,26,14,21,21.40
2018,04,26,14,22,21.40
2018,04,26,14,23,21.40
2018,04,26,14,24,21.40
2018,04,26,14,25,21.40
2018,04,26,14,26,21.40
2018,04,26,14,27,21.40
2018,04,26,14,28,21.40
2018,04,26,14,29,21.40
2018,04,26,14,30,21.40
2018,04,26,14,31,21.50
2018,04,26,14,32,21.50
2018,04,26,14,33,21.50
2018,04,26,14,34,21.50
2018,04,26,14,35,21.60
2018,04,26,14,36,21.60
2018,04,26,14,37,21.60
2018,04,26,14,38,21.70
2018,04,26,14,39,21.70
2018,04,26,14,40,21.80
2018,04,26,14,41,21.80
2018,04,26,14,42,21.80
2018,04,26,14,43,21.80
2018,04,26,14,44,21.90
2018,04,26,14,45,21.90
2018,04,26,14,46,21.90
2018,04,26,14,47,21.90
2018,04,26,14,48,21.90
2018,04,26,14,49,21.90
2018,04,26,14,50,21.90
2018,04,26,14,51,21.90
2018,04,26,14,52,21.90
2018,04,26,14,53,21.90
2018,04,26,14,54,21.80
2018,04,26,14,55,21.80
2018,04,26,14,56,21.80
2018,04,26,14,57,21.70
2018,04,26,14,58,21.70
2018,04,26,14,59,21.70
2018,04,26,15,00,21.70
2018,04,26,15,01,21.70
2018,04,26,15,02,21.70
2018,04,26,15,03,21.80
2018,04,26,15,04,21.80
2018,04,26,15,05,21.90
2018,04,26,15,06,21.90
2018,04,26,15,07,21.90
2018,04,26,15,08,21.90
2018,04,26,15,09,22.00
2018,04,26,15,10,22.10
2018,04,26,15,11,22.10
2018,04,26,15,12,22.20
2018,04,26,15,13,22.20
2018,04,26,15,14,22.30
2018,04,26,15,15,22.40
2018,04,26,15,16,22.50
2018,04,26,15,17,22.60
2018,04,26,15,18,22.70
2018,04,26,15,19,22.70
2018,04,26,15,20,22.70
2018,04,26,15,21,22.70
2018,04,26,15,22,22.70
2018,04,26,15,23,22.70
2018,04,26,15,24,22.70
2018,04,26,15,25,22.70
2018,04,26,15,26,22.70
2018,04,26,15,27,22.80
2018,04,26,15,28,22.80
2018,04,26,15,29,22.70
2018,04,26,15,30,22.70
2018,04,26,15,31,22.70
2018,04,26,15,32,22.80
2018,04,26,15,33,22.70
2018,04,26,15,34,22.70
2018,04,26,15,35,22.70
2018,04,26,15,36,22.70
2018,04,26,15,37,22.70
2018,04,26,15,38,22.70
2018,04,26,15,39,22.70
2018,04,26,15,40,22.80
2018,04,26,15,41,22.80
2018,04,26,15,42,22.80
2018,04,26,15,43,22.80
2018,04,26,15,44,22.80
2018,04,26,15,45,22.80
2018,04,26,15,46,22.90
2018,04,26,15,47,22.90
2018,04,26,15,48,22.90
2018,04,26,15,49,22.90
2018,04,26,15,50,22.90
2018,04,26,15,51,23.00
2018,04,26,15,52,23.00
2018,04,26,15,53,23.10
2018,04,26,15,54,23.10
2018,04,26,15,55,23.10
2018,04,26,15,56,23.10
2018,04,26,15,57,23.20
2018,04,26,15,58,23.20
2018,04,26,15,59,23.20
2018,04,26,16,00,23.20
2018,04,26,16,01,23.30
2018,04,26,16,02,23.20
2018,04,26,16,03,23.20
2018,04,26,16,04,23.20
2018,04,26,16,05,23.10
2018,04,26,16,06,23.10
2018,04,26,16,07,23.10
2018,04,26,16,08,23.00
2018,04,26,16,09,23.00
2018,04,26,16,10,23.00
2018,04,26,16,11,22.90
2018,04,26,16,12,22.90
2018,04,26,16,13,22.80
2018,04,26,16,14,22.80
2018,04,26,16,15,22.70
2018,04,26,16,16,22.70
2018,04,26,16,17,22.70
2018,04,26,16,18,22.60
2018,04,26,16,19,22.60
2018,04,26,16,20,22.60
2018,04,26,16,21,22.60
2018,04,26,16,22,22.60
2018,04,26,16,23,22.60
2018,04,26,16,24,22.60
2018,04,26,16,25,22.60
2018,04,26,16,26,22.60
2018,04,26,16,27,22.60
2018,04,26,16,28,22.60
2018,04,26,16,29,22.60
2018,04,26,16,30,22.60
2018,04,26,16,31,22.60
2018,04,26,16,32,22.60
2018,04,26,16,33,22.60
2018,04,26,16,34,22.60
2018,04,26,16,35,22.60
2018,04,26,16,36,22.60
2018,04,26,16,37,22.60
2018,04,26,16,38,22.60
2018,04,26,16,39,22.60
2018,04,26,16,40,22.50
2018,04,26,16,41,22.50
2018,04,26,16,42,22.50
2018,04,26,16,43,22.50
2018,04,26,16,44,22.50
2018,04,26,16,45,22.50
2018,04,26,16,46,22.50
2018,04,26,16,47,22.50
2018,04,26,16,48,22.50
2018,04,26,16,49,22.50
2018,04,26,16,50,22.50
2018,04,26,16,51,22.60
2018,04,26,16,52,22.60
2018,04,26,16,53,22.60
2018,04,26,16,54,22.60
2018,04,26,16,55,22.70
2018,04,26,16,56,22.60
2018,04,26,16,57,22.60
2018,04,26,16,58,22.70
2018,04,26,16,59,22.70
2018,04,26,17,00,22.70
2018,04,26,17,01,22.70
2018,04,26,17,02,22.70
2018,04,26,17,03,22.70
2018,04,26,17,04,22.70
2018,04,26,17,05,22.70
2018,04,26,17,06,22.70
2018,04,26,17,07,22.70
2018,04,26,17,08,22.70
2018,04,26,17,09,22.80
2018,04,26,17,10,22.80
2018,04,26,17,11,22.80
2018,04,26,17,12,22.80
2018,04,26,17,13,22.80
2018,04,26,17,14,22.90
2018,04,26,17,15,22.90
2018,04,26,17,16,23.00
2018,04,26,17,17,23.00
2018,04,26,17,18,23.10
2018,04,26,17,19,23.10